User: anonymous   Login
Location: Jaite
(41.2884°N, 81.5737°W)
Time: 12:14:45
(UTC+00:00)
Language:

Cosmos 2228 - Orbit

View from above orbital plane
View from above orbital plane
View from above satellite
View from above satellite

Ground track
Ground track

The orbit data is extracted from the following two-line orbital elements,

1 22286U 92094A   20094.80734998 +.00000199 +00000-0 +18866-4 0  9999
2 22286 082.5181 130.3412 0020294 333.1415 026.8750 14.88125696453345
Epoch (UTC): 03 April 2020 19:22:35
Eccentricity: 0.0020294
inclination: 82.5181°
perigee height: 589 km
apogee height: 618 km
right ascension of ascending node: 130.3412°
argument of perigee: 333.1415°
revolutions per day: 14.88125696
mean anomaly at epoch: 26.8750°
orbit number at epoch: 45334

The dashed part of the orbit path shows where the satellite is in the earth's shadow,  

DLR